Miscellaneous Local Product
Issued by NWS North Platte, NE

Home | Current Version | Previous Version | Text Only | Print | Product List | Glossary On
Versions: 1 2 3 4 5 6 7 8 9 10 11 12 13 14 15 16 17 18 19 20 21 22 23 24 25 26 27 28 29 30 31 32 33 34 35 36 37 38 39 40 41 42 43 44 45 46 47 48 49 50
976
AXUS43 KLBF 210810
MISLBF


WESTERN AND NORTH CENTRAL NEBRASKA HOURLY WEATHER ROUNDUP
NATIONAL WEATHER SERVICE NORTH PLATTE NE
300 AM CDT FRI JUL 21 2017

NOTE: "FAIR" INDICATES FEW OR NO CLOUDS BELOW 12,000 FEET WITH NO
SIGNIFICANT WEATHER AND/OR OBSTRUCTIONS TO VISIBILITY.

NOTE: STATIONS NOT REPORTING VARIABLES SUCH AS SKY/WEATHER OR
PRESSURE ARE PROVIDED BY RAWS AND APRS NETWORKS AND ARE NOT UNDER
NATIONAL WEATHER SERVICE QUALITY CONTROL.

...OBSERVATIONS IN AND NEAR THE EASTERN PANHANDLE OF NEBRASKA...

CITY           SKY/WX    TMP DP  RH WIND       PRES   REMARKS
PINE RIDGE     CLOUDY    72  68  87 SW14      29.92F
GORDON         FAIR      74  67  78 SW5       29.93F
CHADRON        CLOUDY    72  60  66 SW7       29.93F
ALLIANCE       CLOUDY    73  62  68 NW13      29.96S
SIDNEY         CLOUDY    73  60  63 NW12      30.03R
CRESCENT LAKE    N/A     74  65  74 W5          N/A
$$

...OBSERVATIONS IN NORTHERN NEBRASKA AND FAR SOUTHERN SOUTH DAKOTA...

CITY           SKY/WX    TMP DP  RH WIND       PRES   REMARKS
WINNER         MOCLDY    78  74  87 E9        29.85F
VALENTINE      CLOUDY    77  69  76 S6        29.86F
THEDFORD       CLEAR     73  72  96 CALM      29.87F FOG
AINSWORTH      CLOUDY    75  72  88 SE7       29.85F
O`NEILL        CLOUDY    76  74  94 E7        29.83F
ORD            PTCLDY    77  68  73 SE6       29.83F
BROKEN BOW     CLOUDY    75  69  81 E5        29.85F
VALENTINE NWR    N/A     72  69  92 CALM        N/A
HALSEY           N/A     73  73  99 CALM        N/A
BUTTE            N/A     74  71  91 NE10        N/A
CHAMBERS         N/A     76  73  92 CALM        N/A
EWING            N/A     76  73  91 E3          N/A
$$

...OBSERVATIONS IN SOUTHWEST NEBRASKA AND FAR NORTHEAST COLORADO...

CITY           SKY/WX    TMP DP  RH WIND       PRES   REMARKS
HOLYOKE        FAIR      73  64  73 NW3       29.96S
IMPERIAL       CLOUDY    73  67  81 W6        29.92R
OGALLALA       CLOUDY    72  68  88 CALM      29.91F
NORTH PLATTE   CLOUDY    72  72 100 CALM      29.86S FOG
MCCOOK         PTCLDY    78  59  51 S7        29.87S
LEXINGTON      CLEAR     78  62  57 S9        29.86S
STAPLETON        N/A     72  69  90 CALM        N/A
GOTHENBURG       N/A     75  67  76 CALM        N/A
CALLAWAY         N/A     73  71  92 S7          N/A
$$

...OBSERVATIONS IN CENTRAL LINCOLN COUNTY AREA...

CITY           SKY/WX    TMP DP  RH WIND       PRES   REMARKS
N.P. AIRPORT   CLOUDY    72  72 100 CALM      29.86S FOG
N.P. DOWNTOWN    N/A     76  69  78 CALM        N/A
N.P. SOUTHEAST   N/A     76  67  72 CALM        N/A
N.P. HILLCREST   N/A     75  71  88 CALM        N/A
$$

...SOME OBSERVATIONS FROM AROUND THE REGION...

CITY           SKY/WX    TMP DP  RH WIND       PRES   REMARKS
DENVER         CLOUDY    71  52  50 SW12      30.10F
LIMON          CLOUDY    62  58  86 NW6       30.11F
ASPEN          CLOUDY    55  50  83 S7        30.35F
LARAMIE        CLOUDY    56  52  86 NW6       30.29S
CASPER         CLOUDY    68  54  60 SW15      30.07F
CHEYENNE       CLOUDY    64  55  72 W9        30.19R
SCOTTSBLUFF    MOCLDY    72  56  57 W8        30.00F
GRAND ISLAND   CLEAR     78  68  71 S13       29.87F
OMAHA          CLOUDY    87  71  58 S12       29.88F HX  93
SIOUX FALLS    PTCLDY    76  74  93 SE9       29.89F
RAPID CITY     CLOUDY    66  63  90 N8        29.94F
BISMARCK       CLOUDY    72  62  71 S8        29.81F
KANSAS CITY    CLEAR     80  73  79 S10       29.95F
HILL CITY      CLEAR     82  59  45 S10       29.89F
WICHITA        CLEAR     81  70  69 S12       29.96F
DODGE CITY     CLEAR     80  59  48 S13       29.98S
OKLAHOMA CITY  PTCLDY    80  68  66 S12       30.00F
DALLAS         CLEAR     84  72  67 S8        29.99S
AMARILLO       CLEAR     76  57  51 S14       30.09S
$$




USA.gov is the U.S. government's official web portal to all federal, state and local government web resources and services.